Weather Service Report


577 
ASUS45 KREV 160410
RWRNV 
NEVADA REGIONAL WEATHER ROUNDUP
NATIONAL WEATHER SERVICE RENO NV
900 PM PDT SUN JUL 15 2018

NOTE: "FAIR" INDICATES FEW OR NO CLOUDS BELOW 12,000 FEET WITH NO
SIGNIFICANT WEATHER AND/OR OBSTRUCTIONS TO VISIBILITY.

NVZ001-003-004-160500-
WESTERN NEVADA
  
CITY           SKY/WX    TMP DP  RH WIND       PRES   REMARKS
RENO           MOCLDY    86  46  24 NW10      30.10R                  
CARSON CITY    CLOUDY    82  45  26 W6G18     30.13R                  
MINDEN         MOCLDY    81  45  28 W9        30.14R                  
FALLON         MOCLDY    91  47  21 NW18G24   30.00R                  
LOVELOCK       MOCLDY    91  42  18 NW20      29.99R                  
$$

NVZ002-CAZ072-073-160500-
NORTHERN AND CENTRAL SIERRA
  
CITY           SKY/WX    TMP DP  RH WIND       PRES   REMARKS
S. LAKE TAHOE  PTCLDY    64  54  69 CALM      30.27R                  
TRUCKEE        CLEAR     66  50  55 SW6       30.25S                  
SQUAW VLY 8000   N/A     61  48  63 NW3         N/A                   
BLUE CANYON    CLEAR     70  54  56 CALM      30.22S                  
MAMMOTH LAKES  FAIR      71  43  35 CALM      30.31R                  
BRIDGEPORT     CLOUDY    73  44  35 SW5       30.26R HAZE             
$$

NVZ030-031-036-160500-
NORTHERN NEVADA
  
CITY           SKY/WX    TMP DP  RH WIND       PRES   REMARKS
ELKO           CLOUDY    81  48  31 NE5       30.12F                  
WINNEMUCCA     MOCLDY    83  49  30 S17       30.05R                  
WENDOVER       CLOUDY    91  42  18 N14       30.03R                  
$$

NVZ035-037-160500-
CENTRAL NEVADA
  
CITY           SKY/WX    TMP DP  RH WIND       PRES   REMARKS
ELY            CLOUDY    77  45  32 W6        30.21R                  
EUREKA           N/A     77  46  33 SW9       30.22R                  
$$

NVZ013-014-160500-
SOUTH CENTRAL NEVADA
  
CITY           SKY/WX    TMP DP  RH WIND       PRES   REMARKS
TONOPAH        TSTM      66  61  84 NE24      30.21R                  
$$

NVZ017-020-022-160500-
SOUTHERN NEVADA
  
CITY           SKY/WX    TMP DP  RH WIND       PRES   REMARKS
LAS VEGAS      PTCLDY    99  61  28 SE6       29.86R                  
N. LAS VEGAS   PTCLDY    98  56  24 SE7       29.86R                  
NELLIS AFB     PTCLDY    98  59  27 SE6       29.84R                  
HENDERSON      CLEAR     97  62  31 S14       29.91R                  
MERCURY        NOT AVBL                                               
$$
  

Return to Home page


Western Regional Climate Center, wrcc@dri.edu